Terminal Aerodrome Forecast
Issued by NWS Pittsburgh, PA

Current Version | Previous Version | Graphics & Text | Print | Product List | Glossary On
Versions: 1 2 3 4 5 6 7 8 9 10 11 12 13 14 15 16 17 18 19 20 21 22 23 24 25 26 27 28 29 30 31 32 33
000
FTUS41 KPBZ 282222 AAE
TAFPIT
TAF AMD
KPIT 282222Z 2822/2924 27005KT P6SM VCTS BKN040CB BKN200
      TEMPO 2822/2824 33015G25KT 2SM TSRA BKN040CB OVC120
     FM290100 32003KT P6SM BKN150=

USA.gov is the U.S. government's official web portal to all federal, state and local government web resources and services.